Change the Weather History Date:

Thursday, September 19, 2013

  Actual Average (KAPN) Record (KAPN)
Temperature  
Mean Temperature 72 °F 57 °F  
Max Temperature 82 °F 68 °F 88 °F (1955)
Min Temperature 62 °F 46 °F 27 °F (1929)
Degree Days  
Heating Degree Days 0 9  
Month to date heating degree days 119  
Since 1 July heating degree days 234  
Cooling Degree Days 7 1  
Month to date cooling degree days 21  
Year to date cooling degree days 287  
Growing Degree Days 22 (Base 50)    
Moisture  
Dew Point 62 °F    
Average Humidity 74    
Maximum Humidity 90    
Minimum Humidity 57    
Precipitation  
Precipitation 0.00 in 0.09 in 1.21 in (1932)
Month to date precipitation 1.86  
Year to date precipitation 20.64  
Sea Level Pressure  
Sea Level Pressure 29.91 in    
Wind  
Wind Speed 8 mph (South)    
Max Wind Speed 13 mph    
Max Gust Speed 16 mph    
Visibility 10 miles    
Events Rain    
T = Trace of Precipitation, MM = Missing Value Source: NWS Daily Summary

Daily Weather History Graph

Daily Weather History Graph

Search for Another Location

Airport or City:

Trip Planner

Search our weather history database for the weather conditions in past years. The results will help you decide how hot, cold, wet, or windy it might be!

Date:

Astronomy

Sep. 19, 2013 Rise Set
Actual Time 7:18 AM EDT 7:38 PM EDT
Civil Twilight 6:49 AM EDT 8:07 PM EDT
Nautical Twilight 6:14 AM EDT 8:42 PM EDT
Astronomical Twilight 5:38 AM EDT 9:18 PM EDT
Moon 7:31 PM EDT (9/19) 7:29 AM EDT (9/19)
Length of Visible Light 13h 18m
Length of Day
12h 19m
Full, 100% of the Moon is Illuminated
Sep 19
Full
Sep 26
Last Quarter
Oct 4
New
Oct 11
First Quarter
Oct 18
Full

Hourly Weather History & Observations

Time (EDT) Temp. Heat Index Dew Point Humidity Pressure Visibility Wind Dir Wind Speed Gust Speed Precip Events Conditions
12:14 AM 66.4 °F - 55.9 °F 69% 29.98 in 10.0 mi South 8.1 mph - N/A   Mostly Cloudy
12:35 AM 66.4 °F - 55.8 °F 69% 29.98 in 10.0 mi South 9.2 mph - N/A   Mostly Cloudy
12:55 AM 65.7 °F - 55.6 °F 70% 29.99 in 10.0 mi South 8.1 mph - N/A   Mostly Cloudy
1:15 AM 65.8 °F - 55.6 °F 69% 29.98 in 10.0 mi South 9.2 mph - N/A   Overcast
1:35 AM 66.6 °F - 55.4 °F 67% 29.98 in 10.0 mi South 10.4 mph - N/A   Overcast
1:55 AM 66.7 °F - 55.2 °F 66% 29.98 in 10.0 mi South 10.4 mph - N/A   Overcast
2:15 AM 66.7 °F - 55.4 °F 67% 29.98 in 10.0 mi SSW 9.2 mph - N/A   Overcast
2:35 AM 64.9 °F - 56.3 °F 74% 29.97 in 10.0 mi South 10.4 mph - N/A Rain Light Rain
2:54 AM 64.9 °F - 55.9 °F 73% 29.97 in 10.0 mi South 8.1 mph - N/A   Mostly Cloudy
3:15 AM 65.5 °F - 55.6 °F 70% 29.96 in 10.0 mi South 10.4 mph - N/A   Mostly Cloudy
3:35 AM 65.1 °F - 55.2 °F 70% 29.96 in 10.0 mi South 10.4 mph - N/A   Mostly Cloudy
3:55 AM 64.6 °F - 54.9 °F 71% 29.95 in 10.0 mi South 9.2 mph - N/A   Scattered Clouds
4:15 AM 64.6 °F - 54.9 °F 71% 29.94 in 10.0 mi South 10.4 mph - N/A   Clear
4:35 AM 64.9 °F - 54.9 °F 70% 29.93 in 10.0 mi South 10.4 mph - N/A   Mostly Cloudy
4:55 AM 65.5 °F - 54.9 °F 68% 29.93 in 10.0 mi South 11.5 mph - N/A   Mostly Cloudy
5:14 AM 65.7 °F - 55.0 °F 69% 29.94 in 10.0 mi SSW 11.5 mph 16.1 mph N/A   Overcast
5:35 AM 62.8 °F - 57.6 °F 83% 29.94 in 4.0 mi South 12.7 mph - N/A Rain Light Rain
5:55 AM 62.4 °F - 58.3 °F 86% 29.94 in 10.0 mi South 11.5 mph - N/A Rain Light Rain
6:14 AM 62.8 °F - 57.9 °F 84% 29.94 in 10.0 mi South 11.5 mph - N/A   Overcast
6:35 AM 62.6 °F - 57.7 °F 84% 29.95 in 10.0 mi South 8.1 mph - N/A   Overcast
6:55 AM 62.6 °F - 57.7 °F 84% 29.96 in 10.0 mi SSW 6.9 mph - N/A   Overcast
7:14 AM 62.2 °F - 58.1 °F 86% 29.97 in 10.0 mi SSW 5.8 mph - N/A Rain Light Rain
7:35 AM 62.2 °F - 58.3 °F 87% 29.98 in 10.0 mi SSE 3.5 mph - N/A Rain Light Rain
7:55 AM 62.2 °F - 58.3 °F 87% 29.97 in 10.0 mi South 8.1 mph - N/A Rain Light Rain
8:15 AM 62.6 °F - 58.6 °F 87% 29.93 in 7.0 mi SSE 12.7 mph - N/A Rain Light Rain
8:35 AM 62.8 °F - 59.0 °F 87% 29.95 in 7.0 mi SW 8.1 mph - N/A Rain Light Rain
8:54 AM 62.1 °F - 59.0 °F 90% 29.95 in 10.0 mi Calm Calm - N/A   Scattered Clouds
9:15 AM 62.8 °F - 59.4 °F 89% 29.94 in 7.0 mi SSE 4.6 mph - N/A   Clear
9:31 AM 63.1 °F - 59.9 °F 89% 29.94 in 10.0 mi SSE 8.1 mph - N/A   Clear
9:55 AM 64.4 °F - 60.8 °F 88% 29.94 in 10.0 mi South 8.1 mph - N/A   Clear
10:15 AM 64.9 °F - 61.2 °F 88% 29.94 in 10.0 mi SSE 8.1 mph - N/A   Clear
10:35 AM 66.9 °F - 62.6 °F 86% 29.94 in 10.0 mi South 6.9 mph - N/A   Clear
10:55 AM 68.2 °F - 63.0 °F 83% 29.94 in 10.0 mi South 10.4 mph - N/A   Clear
11:15 AM 69.1 °F - 63.5 °F 82% 29.93 in 10.0 mi South 6.9 mph - N/A   Clear
11:35 AM 70.7 °F - 63.7 °F 78% 29.94 in 10.0 mi South 5.8 mph - N/A   Clear
11:54 AM 73.4 °F - 64.4 °F 73% 29.94 in 10.0 mi SSW 5.8 mph - N/A   Clear
12:15 PM 74.3 °F - 64.9 °F 72% 29.94 in 10.0 mi SW 8.1 mph - N/A   Clear
12:35 PM 75.7 °F - 65.3 °F 70% 29.94 in 10.0 mi SW 10.4 mph - N/A   Clear
12:54 PM 77.0 °F - 65.5 °F 67% 29.93 in 10.0 mi SW 6.9 mph - N/A   Clear
1:15 PM 77.4 °F - 65.7 °F 67% 29.92 in 10.0 mi SW 6.9 mph - N/A   Clear
1:35 PM 78.4 °F - 66.0 °F 66% 29.91 in 10.0 mi SSW 8.1 mph - N/A   Clear
1:55 PM 79.5 °F - 65.7 °F 62% 29.91 in 10.0 mi SW 10.4 mph - N/A   Clear
2:15 PM 80.6 °F 82.5 °F 65.5 °F 60% 29.90 in 10.0 mi SW 8.1 mph - N/A   Clear
2:35 PM 81.1 °F 82.9 °F 65.1 °F 58% 29.90 in 10.0 mi SSW 9.2 mph - N/A   Clear
2:55 PM 81.9 °F 83.7 °F 65.5 °F 57% 29.89 in 10.0 mi SW 9.2 mph 16.1 mph N/A   Clear
3:15 PM 81.5 °F 83.4 °F 65.3 °F 58% 29.89 in 10.0 mi South 9.2 mph - N/A   Scattered Clouds
3:34 PM 81.0 °F 83.0 °F 65.7 °F 60% 29.89 in 10.0 mi South 8.1 mph - N/A   Scattered Clouds
3:55 PM 81.9 °F 84.1 °F 66.2 °F 59% 29.88 in 10.0 mi South 10.4 mph - N/A   Scattered Clouds
4:15 PM 82.6 °F 84.9 °F 66.6 °F 58% 29.88 in 10.0 mi South 12.7 mph 16.1 mph N/A   Clear
4:35 PM 82.0 °F 84.3 °F 66.4 °F 59% 29.87 in 10.0 mi South 8.1 mph - N/A   Clear
4:55 PM 82.2 °F 84.7 °F 67.1 °F 60% 29.86 in 10.0 mi South 10.4 mph - N/A   Clear
5:15 PM 81.9 °F 84.4 °F 67.1 °F 61% 29.87 in 10.0 mi SSW 9.2 mph - N/A   Clear
5:35 PM 79.9 °F - 66.9 °F 64% 29.87 in 10.0 mi SSW 8.1 mph - N/A   Clear
5:55 PM 79.0 °F - 67.3 °F 67% 29.86 in 10.0 mi SSW 8.1 mph - N/A   Mostly Cloudy
6:14 PM 79.3 °F - 67.3 °F 66% 29.86 in 10.0 mi South 6.9 mph - N/A   Mostly Cloudy
6:35 PM 78.6 °F - 67.1 °F 68% 29.86 in 10.0 mi South 5.8 mph - N/A   Scattered Clouds
6:55 PM 77.5 °F - 67.3 °F 71% 29.85 in 10.0 mi South 5.8 mph - N/A   Clear
7:14 PM 76.5 °F - 67.3 °F 73% 29.85 in 10.0 mi SSE 3.5 mph - N/A   Clear
7:35 PM 75.6 °F - 67.1 °F 75% 29.85 in 10.0 mi SSE 4.6 mph - N/A   Clear
7:55 PM 74.5 °F - 67.1 °F 78% 29.85 in 10.0 mi South 4.6 mph - N/A   Clear
8:14 PM 74.5 °F - 66.9 °F 77% 29.85 in 10.0 mi South 5.8 mph - N/A   Clear
8:35 PM 73.6 °F - 66.6 °F 79% 29.85 in 10.0 mi South 5.8 mph - N/A   Clear
8:55 PM 73.0 °F - 66.4 °F 80% 29.85 in 10.0 mi South 4.6 mph - N/A   Clear
9:15 PM 72.7 °F - 66.4 °F 81% 29.86 in 10.0 mi South 5.8 mph - N/A   Clear
9:35 PM 72.3 °F - 66.4 °F 82% 29.87 in 10.0 mi South 4.6 mph - N/A   Clear
9:54 PM 72.0 °F - 66.4 °F 83% 29.86 in 10.0 mi SSE 5.8 mph - N/A   Clear
10:15 PM 71.6 °F - 66.4 °F 84% 29.85 in 10.0 mi SSE 6.9 mph - N/A   Clear
10:35 PM 71.6 °F - 66.4 °F 84% 29.85 in 10.0 mi South 8.1 mph - N/A   Clear
10:54 PM 71.2 °F - 66.4 °F 85% 29.84 in 10.0 mi South 6.9 mph - N/A   Clear
11:15 PM 70.7 °F - 66.2 °F 86% 29.82 in 10.0 mi South 9.2 mph - N/A   Clear
11:35 PM 70.7 °F - 66.2 °F 86% 29.82 in 10.0 mi SSE 8.1 mph - N/A   Clear
11:53 PM 70.2 °F - 65.8 °F 86% 29.82 in 10.0 mi South 9.2 mph - N/A   Clear